EW8796 Weather Reports


time (UTC)temp
F
wind
direction
speed
knots
gust
knots
rain 1hr
in
rain 24hr
in
rain mn
in
humidity
%
barometer
mb
20260503003017 59 225 5.2 13.0 0.00 0.00 0.00 31 1013.3
20260503000016 61 225 5.2 15.6 0.00 0.00 0.00 28 1013.3
20260502233016 63 270 6.1 15.6 0.00 0.00 0.00 27 1013.6
20260502230017 63 248 6.1 19.1 0.00 0.00 0.00 26 1014.0
20260502223017 63 270 6.1 19.1 0.00 0.00 0.00 27 1014.3
20260502220017 64 270 6.1 19.1 0.00 0.00 0.00 27 1014.6
20260502213017 64 248 6.1 20.9 0.00 0.00 0.00 28 1014.9
20260502210017 64 248 6.1 19.1 0.00 0.00 0.00 27 1015.3
20260502203017 64 270 6.1 17.4 0.00 0.00 0.00 27 1015.6
20260502200017 64 225 5.2 15.6 0.00 0.00 0.00 31 1016.1
20260502193057 63 293 5.2 17.4 0.00 0.00 0.00 27 1016.6
20260502190017 62 270 5.2 14.8 0.00 0.00 0.00 26 1016.9
20260502183017 60 203 5.2 15.6 0.00 0.00 0.00 28 1017.2
20260502163017 57 248 3.5 14.8 0.00 0.00 0.00 30 1018.4
20260502123017 39 0.0 0.0 0.00 0.01 0.00 79 1019.0
20260502113017 29 0.0 0.0 0.00 0.02 0.00 88 1018.2
20260502110037 29 0.0 0.0 0.00 0.02 0.00 88 1018.0
20260502103017 29 0.0 0.0 0.00 0.02 0.00 87 1017.8
20260502070017 33 0.0 2.6 0.00 0.02 0.00 78 1018.0
20260502063016 33 0.0 0.0 0.00 0.02 0.00 77 1018.0
20260502060017 34 0.0 0.0 0.00 0.02 0.00 76 1018.0
20260502053037 35 0.0 0.9 0.00 0.02 0.00 74 1017.9
20260502050109 36 0.0 0.0 0.00 0.02 0.00 70 1017.8
20260502043037 38 0.0 0.0 0.00 0.02 0.02 67 1017.7
20260502040017 40 0.0 3.5 0.00 0.02 0.02 64 1017.6
20260502033037 42 0 0.9 3.5 0.00 0.02 0.02 56 1017.3
20260502030017 43 0 2.6 5.2 0.00 0.02 0.02 53 1017.0
20260502023017 44 0 0.9 5.2 0.00 0.02 0.02 52 1016.6
20260502020017 45 0.0 2.6 0.00 0.02 0.02 50 1016.3
20260502013017 48 0 2.6 7.0 0.00 0.02 0.02 44 1015.9
20260502010017 50 0 5.2 11.3 0.00 0.02 0.02 40 1015.5